Weather History for Swansboro, NC

Change the Weather History Date:

Thursday, December 20, 2012

  Actual Average (KNKT) Record (KNKT)
Temperature  
Mean Temperature 52 °F -  
Max Temperature 64 °F 54 °F 71 °F (2008)
Min Temperature 39 °F 34 °F 17 °F (2004)
Degree Days  
Heating Degree Days 14    
Growing Degree Days 2 (Base 50)    
Moisture  
Dew Point 50 °F    
Average Humidity 80    
Maximum Humidity 93    
Minimum Humidity 70    
Precipitation  
Precipitation 0.05 in - - ()
Sea Level Pressure  
Sea Level Pressure 30.00 in    
Wind  
Wind Speed 8 mph (ESE)    
Max Wind Speed 24 mph    
Max Gust Speed 33 mph    
Visibility 10 miles    
Events Rain    
Averages and records for this station are not official NWS values.
T = Trace of Precipitation, MM = Missing Value Source: NWS Daily Summary

Daily Weather History Graph

Daily Weather History Graph

Search for Another Location

Airport:

Trip Planner

Search our weather history database for the weather conditions in past years. The results will help you decide how hot, cold, wet, or windy it might be!

Date:

Astronomy

Dec. 20, 2012 Rise Set
Actual Time 7:11 AM EST 5:00 PM EST
Civil Twilight 6:43 AM EST 5:28 PM EST
Nautical Twilight 6:11 AM EST 6:00 PM EST
Astronomical Twilight 5:40 AM EST 6:31 PM EST
Moon 12:06 PM EST (12/20) 12:08 AM EST (12/20)
Length of Visible Light 10h 45m
Length of Day
9h 49m
First Quarter, 55% of the Moon is Illuminated
Dec 20
First Quarter
Dec 28
Full
Jan 4
Last Quarter
Jan 11
New
Jan 18
First Quarter

Hourly Weather History & Observations

Time (EST) Temp. Windchill Dew Point Humidity Pressure Visibility Wind Dir Wind Speed Gust Speed Precip Events Conditions
12:57 AM 41.0 °F - 39.0 °F 93% 30.14 in 10.0 mi Calm Calm - N/A   Clear
1:57 AM 39.9 °F - 37.9 °F 93% 30.15 in 10.0 mi Calm Calm - N/A   Clear
2:57 AM 46.9 °F - 42.1 °F 83% 30.17 in 10.0 mi NE 6.9 mph - N/A   Clear
3:57 AM 46.9 °F - 44.1 °F 90% 30.17 in 10.0 mi ENE 8.1 mph - N/A   Clear
4:57 AM 46.9 °F - 43.0 °F 86% 30.17 in 10.0 mi ENE 5.8 mph - N/A   Clear
5:57 AM 46.0 °F 43.1 °F 43.0 °F 89% 30.18 in 10.0 mi ENE 5.8 mph - N/A   Clear
6:57 AM 46.9 °F - 43.0 °F 86% 30.19 in 10.0 mi NE 8.1 mph - N/A   Clear
8:57 AM 51.1 °F - 44.1 °F 77% 30.18 in 10.0 mi ENE 9.2 mph - N/A   Scattered Clouds
9:57 AM 54.0 °F - 46.0 °F 75% 30.16 in 10.0 mi East 8.1 mph - N/A   Scattered Clouds
10:57 AM 57.0 °F - 48.0 °F 72% 30.12 in 10.0 mi East 11.5 mph - N/A   Scattered Clouds
11:57 AM 60.1 °F - 51.1 °F 72% 30.08 in 10.0 mi East 9.2 mph 25.3 mph N/A   Clear
12:57 PM 61.0 °F - 52.0 °F 72% 30.04 in 10.0 mi East 10.4 mph - N/A   Scattered Clouds
1:57 PM 63.0 °F - 53.1 °F 70% 30.01 in 10.0 mi East 8.1 mph - N/A   Scattered Clouds
2:57 PM 63.0 °F - 55.0 °F 75% 29.97 in 10.0 mi SE 8.1 mph - N/A   Scattered Clouds
3:57 PM 63.0 °F - 55.0 °F 75% 29.94 in 10.0 mi SSE 11.5 mph - N/A   Scattered Clouds
4:57 PM 63.0 °F - 55.9 °F 78% 29.92 in 10.0 mi South 9.2 mph - N/A   Mostly Cloudy
5:57 PM 63.0 °F - 55.9 °F 78% 29.89 in 10.0 mi South 11.5 mph - N/A   Mostly Cloudy
6:57 PM 64.0 °F - 57.0 °F 78% 29.87 in 10.0 mi South 13.8 mph - N/A   Clear
7:57 PM 64.9 °F - 55.9 °F 73% 29.84 in 10.0 mi South 17.3 mph - N/A   Partly Cloudy
8:57 PM 64.9 °F - 57.0 °F 75% 29.81 in 10.0 mi South 19.6 mph 25.3 mph N/A   Mostly Cloudy
9:57 PM 64.9 °F - 57.0 °F 75% 29.75 in 10.0 mi South 18.4 mph 25.3 mph N/A   Mostly Cloudy
10:57 PM 64.0 °F - 57.9 °F 80% 29.69 in 7.0 mi South 20.7 mph 28.8 mph 0.00 in Rain Light Rain
11:57 PM 64.0 °F - 60.1 °F 87% 29.61 in 5.0 mi South 24.2 mph 33.4 mph 0.05 in Rain Light Rain